Content
SEND FEEDBACK

Daily
Averages
Monthly
Summary
United States of America

HUNTINGTON BEACH, CALIFORNIA


Home > North America > United States > California
Elevation: 56 feet     Latitude: 33 42N     Longitude: 117 50W

WEATHER
 
SELECT A DAY
Number of Records: 178,935;   Date Range: 1/1/95 - 9/29/14
 
SHARE

PRINT THIS DATA

[ ← Previous Day ]
WEATHER ALMANAC - JANUARY 23, 2013
[ Next Day → ]
[ °C ]   °F
Weather ElementAverageHighLow
Temperature63.5 °F73.9 °F (11:53 am)53.1 °F (1:53 am)
Dewpoint36.7 °F52 °F (11:53 pm)33.1 °F (1:53 am)
Humidity38.9 %75 % (11:53 pm)25 % (11:53 am)
Barometer30.06 in30.14 in (11:53 pm)30.01 in (4:53 am)
Wind Speed3.4 mph10.4 mph (2:53 pm)
Weather ElementAverage
Visibility9.2 mi
Wind DirectionESE (107.8 °)

Weather ElementTotal
Precipitation---
Heating Degree Days1.5 (Base 65)
Growing Degree Days13.5 (Base 50)
Averaged from 23 records on January 23, 2013
WEATHER CONDITIONS BREAKOUT
WIND DIRECTION BREAKOUT
WEATHER BY HOUR - JANUARY 23, 2013
[ °C ]   °F
Local TimeTemperatureDewpointHumidityBarometerVisibilityWind DirectionWind SpeedGust SpeedPrecipitationEventsConditions
1:53 AM53.1 °F33.1 °F47 %30.04 in10.0 miCalmClear
2:53 AM53.1 °F33.1 °F47 %30.04 in10.0 miCalmClear
3:53 AM54.0 °F34.0 °F47 %30.02 in4.0 miCalmHaze
4:53 AM55.0 °F34.0 °F45 %30.01 in8.0 miCalmClear
5:53 AM55.0 °F34.0 °F45 %30.02 in10.0 miCalmMostly Cloudy
6:53 AM57.0 °F34.0 °F42 %30.03 in6.0 miCalmHaze
7:53 AM57.9 °F36.0 °F44 %30.03 in10.0 miCalmMostly Cloudy
8:53 AM64.0 °F35.1 °F34 %30.04 in10.0 miCalmMostly Cloudy
9:53 AM70.0 °F33.1 °F26 %30.05 in10.0 miCalmMostly Cloudy
10:53 AM72.0 °F36.0 °F27 %30.05 in6.0 miCalmHaze
11:53 AM73.9 °F36.0 °F25 %30.04 in7.0 miWest (260°)3.5 mphMostly Cloudy
12:53 PM70.0 °F33.1 °F26 %30.04 in10.0 miSW (230°)4.6 mphMostly Cloudy
1:53 PM71.1 °F36.0 °F28 %30.03 in10.0 miSSW (210°)5.8 mphOvercast
2:53 PM72.0 °F36.0 °F27 %30.04 in10.0 miSSW (200°)10.4 mphOvercast
3:53 PM69.1 °F33.1 °F26 %30.05 in10.0 miSouth (170°)10.4 mphOvercast
4:53 PM68.0 °F33.1 °F27 %30.06 in10.0 miSouth (190°)10.4 mphOvercast
5:53 PM66.9 °F36.0 °F32 %30.07 in10.0 miSE (140°)4.6 mphOvercast
6:53 PM66.0 °F35.1 °F32 %30.08 in10.0 miSW (230°)4.6 mphOvercast
7:53 PM64.9 °F39.0 °F39 %30.08 in10.0 miSouth (180°)6.9 mphOvercast
8:53 PM63.0 °F42.1 °F46 %30.09 in10.0 miSouth (190°)6.9 mphOvercast
9:53 PM63.0 °F42.1 °F46 %30.10 in10.0 miWest (270°)3.5 mphMostly Cloudy
10:53 PM61.0 °F48.0 °F62 %30.13 in10.0 miSSW (210°)5.8 mph0.00 inRainLight Rain
11:53 PM60.1 °F52.0 °F75 %30.14 in10.0 miCalm0.00 inRainLight Rain
Hourly data recorded from KSNA, located miles away from Huntington Beach, California







STORIES FROM OUR PARTNERS